Hourly Data Report for October 18, 2019

EUREKA CLIMATE
NUNAVUT
Current Station Operator: ECCC - MSC

79°59'21.000" N
85°56'02.000" W
10.00 m
2401199
71613
NEK

Download Data

Hourly Data (October 2019)
Hourly Data Report for October 18, 2019
TIME Temp Definition
°C
Dew Point Definition
°C
Rel Hum Definition
%
Wind Dir Definition
10's deg

Wind Spd Definition
km/h
Visibility Definition
km
Stn Press Definition
kPa
Hmdx Definition


Wind Chill Definition


Weather Definition


00:00 -17.6 -20.1 80 33 13   101.64   -25 LegendNANA
01:00 -17.3 -19.3 85 34 12   101.65   -25 LegendNANA
02:00 -19.8 -21.8 84 2 16   101.66   -29 LegendNANA
03:00 -18.7 -20.5 86 2 15   101.69   -27 LegendNANA
04:00 -15.7 -17.4 87 34 5   101.69   -19 LegendNANA
05:00 -14.6 -16.2 87 7 5   101.69   -18 LegendNANA
06:00 -13.8 -16.0 84 11 3   101.70   -16 LegendNANA
07:00 -13.2 -15.5 82 18 6   101.71   -17 LegendNANA
08:00 -13.9 -15.7 86 19 22   101.68   -23 LegendNANA
09:00 -14.0 -15.6 88 18 26   101.67   -24 LegendNANA
10:00 -14.6 -16.6 85 16 28   101.68   -25 LegendNANA
11:00 -14.4 -16.2 86 17 29   101.69   -25 LegendNANA
12:00 -14.2 -16.4 83 17 21   101.69   -23 LegendNANA
13:00 -14.1 -16.2 84 13 22   101.71   -23 LegendNANA
14:00 -14.0 -16.2 84 13 23   101.71   -24 LegendNANA
15:00 -13.9 -16.1 84 13 24   101.71   -24 LegendNANA
16:00 -13.7 -16.2 82 13 21   101.73   -23 LegendNANA
17:00 -13.8 -16.1 83 13 16   101.74   -22 LegendNANA
18:00 -13.8 -15.8 85 13 13   101.75   -21 LegendNANA
19:00 -13.8 -15.7 86 15 9   101.75   -19 LegendNANA
20:00 -14.3 -15.8 88 19 7   101.77   -19 LegendNANA
21:00 -14.8 -16.2 89 2 2   101.79   -16 LegendNANA
22:00 -15.5 -16.9 90 0 1   101.82   -16 LegendNANA
23:00 -15.5 -17.1 88 20 7   101.85   -20 LegendNANA

Notes on Data Quality.

Legend

  • E = Estimated
  • M = Missing
  • NA = Not Available*
  • [empty] = Indicates an unobserved value
Date modified: